« Back
NWS Peachtree City, Ga » Text Product » GA Regional Weather Roundup


Printer-friendly Version
Current Version              Previous Versions:   1  2  3  4  5  6  7  8  9  

Regional Weather Roundup

670
ASUS42 KFFC 281703
RWRGA
WEATHER ROUNDUP FOR GEORGIA
NATIONAL WEATHER SERVICE PEACHTREE CITY GA
1200 PM EST WED JAN 28 2015

NOTE: "FAIR" INDICATES FEW OR NO CLOUDS BELOW 12,000 FEET WITH NO
SIGNIFICANT WEATHER AND/OR OBSTRUCTIONS TO VISIBILITY.

* = USE WITH CAUTION. THE STATIONS MARKED WITH AN ASTERISK MAY NOT
REPORT WEATHER SUCH AS PRECIPITATION, FOG, OR THUNDER AND ARE NOT
QUALITY CONTROLLED BY NWS.

THE REMARK "TC" DENOTES TEMPERATURE READING IN DEGREES CELSIUS.

GAZ001>058-281800-
NORTH GEORGIA

CITY           SKY/WX    TMP DP  RH WIND       PRES   REMARKS
ATLANTA        MOSUNNY   46  23  40 N8        30.29R
ATHENS         SUNNY     45  23  42 E6        30.29R
CHAMBLEE       SUNNY     45  23  42 NW5       30.28S
PEACHTREE CITY SUNNY     45  25  45 NW6       30.30S
ROME           SUNNY     44  21  40 VRB5      30.32F
WEST ATLANTA   SUNNY     44  21  40 N6        30.29S
GAINESVILLE    SUNNY     44  20  38 VRB3      30.27S
CARTERSVILLE   SUNNY     42  20  41 N8        30.32F


CITY           SKY/WX    TMP DP  RH WIND       PRES   REMARKS
DALTON*        SUNNY     39  21  48 N10G16    30.33F WCI  32
LAWRENCEVILLE* SUNNY     45  19  36 CALM      30.25F
MARIETTA       SUNNY     44  22  41 NW8       30.28S
KENNESAW*      SUNNY    N/A N/A N/A NW9       30.31S
$$

GAZ059>098-102>109-281800-
CENTRAL GEORGIA

CITY           SKY/WX    TMP DP  RH WIND       PRES   REMARKS
AUGUSTA-BUSH   SUNNY     46  14  27 NE9       30.29F
AUGUSTA-DANIEL SUNNY     48  12  23 N6        30.29F
COLUMBUS       SUNNY     48  27  44 VRB6      30.30S
MACON          SUNNY     45  27  49 CALM      30.30S
ROBINS AFB     SUNNY     47  27  46 NE5       30.30F


CITY           SKY/WX    TMP DP  RH WIND       PRES   REMARKS
LAGRANGE*      SUNNY     50  30  46 NE3       30.29S
SYLVANIA*      SUNNY     46  23  40 N10G16    30.28F
MILLEDGEVILLE* SUNNY     46  32  57 CALM      30.30S
$$

GAZ099>101-110>166-281800-
SOUTH GEORGIA

CITY           SKY/WX    TMP DP  RH WIND       PRES   REMARKS
SAVANNAH       MOSUNNY   48  18  30 NW10      30.27F
VALDOSTA       SUNNY     50  30  46 N12       30.27F
ALMA           SUNNY     48  27  44 VRB6      30.27F
ST SIMONS      SUNNY     48  23  37 NE12      30.27S
FT STEWART     SUNNY     48  21  35 N8        30.25F
ALBANY         SUNNY     48  29  47 E9        30.31F
HUNTER AFB     SUNNY     47  18  30 N13G21    30.25S
MOODY AFB      SUNNY     49  30  47 VRB5      30.27F
BRUNSWICK      SUNNY     50  19  29 NE9       30.27F


CITY           SKY/WX    TMP DP  RH WIND       PRES   REMARKS
BAINBRIDGE*    SUNNY     54  36  50 NE7       30.30F
MOULTRIE*      SUNNY     46  32  57 N3        30.29F
VIDALIA*       SUNNY     48  28  46 N5G16     30.28S
WAYCROSS*      SUNNY     51  31  45 NE7       30.28R
DOUGLAS*       SUNNY     50  28  43 N5        30.28F
$$



USA.gov is the U.S. government's official web portal to all federal, state and local government web resources and services.